Theta_e
297 289 288 288 294 297 299 303 301 301 306 305 314 326 328 329 334 331 340 350 355 361 361 361 360 359 358 359 358 358 357 357
294 291 296 296 296 298 301 303 303 302 302 310 326 330 331 332 333 331 339 347 354 360 361 361 361 359 359 359 359 358 358 357
294 295 298 300 300 301 299 301 302 304 303 306 325 333 331 332 332 330 338 343 351 360 360 361 361 360 359 359 359 358 358 358
291 297 300 302 303 301 299 303 305 307 306 311 334 330 328 332 330 333 337 340 350 358 359 359 360 359 358 358 358 359 358 358
295 298 300 303 305 303 303 303 306 309 304 311 320 328 327 326 331 334 336 339 345 351 356 359 358 358 358 357 357 358 357 356
296 298 298 307 308 307 306 307 312 312 306 306 324 328 328 330 331 330 333 338 340 343 349 352 354 358 358 357 357 357 357 356
299 300 301 307 306 309 312 309 308 311 311 313 333 331 327 327 331 331 334 335 337 339 340 343 347 353 357 358 358 357 357 356
304 306 305 307 306 306 306 306 306 309 312 316 330 328 325 324 324 327 329 334 337 338 339 339 345 345 349 350 353 353 353 351
303 305 305 303 303 306 303 302 305 304 308 311 315 323 327 326 324 326 327 334 338 338 338 339 338 338 341 342 341 342 342 343
301 303 299 300 303 301 302 303 308 308 309 309 310 311 315 325 328 329 327 332 335 340 339 338 337 337 339 340 339 338 338 337
297 297 298 299 298 299 300 304 307 307 307 307 308 310 313 319 324 330 329 331 333 337 336 336 334 337 337 337 337 337 336 336
295 296 297 297 298 299 301 305 305 306 305 305 306 309 312 318 324 322 331 331 334 333 335 335 335 333 335 335 334 335 335 334
293 295 295 298 294 295 301 304 303 303 304 304 305 306 309 315 318 325 325 334 336 334 334 332 332 331 332 334 333 332 333 334
288 293 295 296 289 297 299 300 299 301 302 302 302 304 305 309 312 315 323 327 339 340 336 332 331 331 331 331 330 331 330 331
287 291 292 292 289 296 298 298 298 299 300 301 301 303 304 306 309 312 316 321 332 339 338 335 332 330 330 331 331 331 332 332
284 289 290 288 289 293 296 296 296 298 299 300 301 302 304 306 307 310 313 316 323 336 339 337 336 333 331 331 333 334 335 335
286 290 289 288 289 291 294 294 294 295 297 298 300 304 306 306 307 307 311 312 315 325 334 336 334 331 332 332 335 336 337 338
287 291 289 288 288 291 292 293 294 295 296 297 299 301 303 305 304 304 305 308 313 316 324 332 336 337 336 336 336 337 339 340
285 289 289 286 284 286 291 293 294 295 296 297 297 297 300 302 303 303 303 305 309 313 316 324 332 333 332 332 332 334 335 339
287 284 278 286 276 283 287 289 291 293 292 294 295 298 302 304 305 304 303 304 304 310 314 317 326 331 332 335 333 334 337 338
Wind_Speed
5 3 6 5 5 6 4 10 4 6 6 4 5 1 6 7 12 17 19 17 16 23 23 24 22 22 21 20 20 20 19 18
5 9 5 4 3 5 7 5 2 2 11 7 4 2 8 12 14 19 17 16 17 22 22 21 22 22 21 21 20 20 19 18
2 6 3 3 5 5 5 6 8 6 7 5 4 6 7 13 15 20 15 12 13 20 21 21 20 21 21 21 21 21 20 19
5 8 2 3 7 3 2 5 9 10 8 4 4 6 6 9 3 8 16 13 12 17 19 19 19 19 20 21 21 21 21 20
5 6 3 3 2 3 2 5 6 8 4 8 12 4 10 9 8 6 7 9 8 10 15 18 16 16 17 18 19 19 19 19
5 11 5 3 4 3 2 5 7 6 5 9 7 7 9 11 9 6 6 5 6 6 9 11 10 14 15 16 16 17 17 17
13 4 4 3 5 4 4 5 5 3 3 7 4 3 6 7 5 5 2 5 5 7 6 6 7 9 11 15 14 13 13 14
2 4 7 9 2 6 4 12 3 3 6 4 2 3 4 3 6 8 9 4 5 6 6 6 7 6 6 6 6 9 8 6
1 0 5 6 3 5 4 13 3 9 12 11 3 3 5 5 5 4 4 3 4 4 6 9 7 5 4 3 3 3 5 5
2 4 5 5 6 9 10 10 7 7 8 6 9 7 6 7 8 8 7 7 7 7 6 8 6 7 6 7 6 6 6 7
3 5 7 9 12 16 19 8 10 8 9 10 9 8 7 6 8 10 15 11 12 10 7 6 5 5 7 8 8 8 7 7
6 6 5 7 10 8 14 6 10 7 9 8 9 8 5 5 7 8 11 13 15 12 11 7 10 8 7 7 8 6 6 8
7 8 8 10 12 18 12 3 8 5 7 8 9 10 8 6 8 8 8 7 12 16 16 14 10 6 4 4 4 6 6 6
5 1 6 9 10 2 2 2 7 2 1 6 7 8 9 8 8 7 7 9 9 11 14 15 16 9 7 5 5 6 5 5
7 3 5 3 4 3 8 5 7 6 4 3 6 7 8 9 10 10 7 6 8 9 12 15 12 11 12 12 10 9 6 7
4 6 5 5 6 5 8 5 7 8 6 3 3 6 7 9 9 10 10 10 6 6 9 12 9 7 5 7 7 7 7 8
4 3 6 8 10 8 8 6 6 7 7 7 5 4 4 7 9 9 9 10 9 5 7 4 7 8 6 9 9 7 9 9
5 5 5 11 22 12 7 7 6 5 7 7 4 5 6 5 7 8 9 10 11 8 7 7 6 7 5 8 8 9 8 8
5 3 4 5 11 7 1 2 4 5 6 8 9 7 5 6 6 7 8 9 9 11 11 7 10 3 1 3 2 3 3 6
3 5 4 5 9 7 6 6 4 8 9 7 9 8 5 5 7 9 8 7 8 9 11 9 9 7 10 11 10 9 8 8
Wind_Direction
101 132 211 220 218 180 247 260 231 292 242 253 246 150 200 247 158 144 151 159 172 177 167 163 161 157 157 157 154 154 155 157
106 239 256 220 232 244 315 318 244 256 298 310 318 258 180 137 147 145 155 162 173 178 167 168 164 162 162 161 158 158 160 162
223 248 222 252 258 283 322 284 283 320 277 261 35 347 114 133 158 149 156 158 174 178 172 169 169 166 167 166 164 164 166 167
243 246 141 269 237 256 201 283 291 338 324 333 313 351 69 104 127 150 152 157 173 181 175 173 172 174 174 172 171 170 170 170
243 269 354 266 210 260 320 286 308 298 352 300 356 56 89 75 74 105 133 149 162 182 178 173 175 178 181 179 178 175 175 174
232 259 270 257 337 264 268 282 327 342 2 340 333 14 81 77 73 72 111 155 163 168 185 173 171 181 187 188 187 184 180 178
235 183 222 273 10 342 309 268 352 309 24 294 334 43 26 91 84 88 127 159 176 175 186 160 148 175 189 198 194 192 192 188
229 219 271 289 301 323 348 310 288 289 311 333 349 47 59 0 187 180 193 205 187 178 176 154 164 160 163 188 190 195 201 195
70 18 303 314 305 290 327 289 68 327 314 321 313 242 174 183 211 209 194 172 197 221 186 178 176 156 161 169 169 181 193 187
260 316 299 273 307 274 256 268 285 299 272 285 307 300 235 231 197 187 203 187 190 198 224 213 181 176 181 185 194 190 190 198
270 261 258 303 281 280 269 301 279 278 288 285 287 287 288 242 273 220 195 193 195 187 199 208 227 199 179 197 202 202 179 195
256 225 253 233 268 272 281 30 316 298 284 290 298 291 299 283 254 250 230 209 175 186 193 188 219 212 221 212 198 189 191 197
234 218 216 197 251 251 280 19 274 0 343 348 341 337 308 287 272 255 246 223 193 193 186 187 204 211 200 223 219 187 209 191
285 152 249 170 241 298 36 27 314 312 30 342 334 328 328 327 304 285 262 223 204 194 195 200 194 192 201 195 215 214 194 179
312 357 321 166 278 300 344 331 297 300 312 319 319 328 321 319 326 325 303 259 258 197 194 199 212 201 206 200 199 221 199 187
263 320 14 290 240 274 284 291 280 303 302 289 299 287 311 316 321 322 319 315 254 219 230 194 198 200 209 224 223 203 200 205
279 306 358 293 287 278 266 273 261 271 297 306 312 257 252 274 297 311 312 319 309 210 220 219 181 181 194 213 212 216 206 190
281 302 339 306 299 296 234 227 204 232 276 284 266 261 286 295 300 301 290 300 305 286 229 194 210 221 196 194 214 226 204 190
233 294 265 310 285 307 0 197 218 288 253 271 283 307 301 301 295 284 288 287 285 289 293 212 213 143 54 83 73 146 200 212
272 20 304 57 280 254 258 279 313 280 286 291 292 305 295 275 281 281 270 264 261 273 275 273 210 201 204 220 209 219 209 196